#timestamp,LO_Frequency,Hit,StdDev 
1504285215.9,286046999.7,N,1.4
1504285235.7,286047002.3,N,1.3
1504285255.6,286047002.2,N,1.2
1504285275.4,286047002.7,N,1.2
1504285295.2,286047001.9,N,1.1
1504285315.1,286047002.4,N,1.1
1504285316.0,286047002.4,N,1.0
1504285335.8,286047001.4,N,1.0
1504285355.6,286047001.8,N,1.0
1504285375.5,286047002.2,N,0.9
1504285395.3,286047002.0,N,0.9
1504285415.2,286047001.9,N,0.9
1504285435.9,286047004.2,Y,0.0
1504285455.7,286047001.6,P,0.1
1504285475.6,286047001.5,P,0.1
1504285495.4,286047001.5,P,0.1
1504285515.3,286047001.4,Y,0.0
1504285535.1,286046999.9,P,0.9
1504285555.8,286047000.2,N,0.7
1504285575.7,286046999.8,N,0.7
1504285595.5,286047000.2,N,0.7
1504285615.4,286047000.2,N,0.6
1504285635.2,286047001.0,N,0.6
1504285655.0,286047000.6,N,0.6
1504285655.9,286047000.6,N,0.5
1504285675.8,286047000.2,N,0.5
1504285695.6,286046999.9,N,0.5
1504285715.5,286047002.7,Y,0.0
1504285735.3,286047000.3,P,0.0
1504285755.1,286047000.3,P,0.0
1504285775.9,286047000.1,N,0.1
1504285795.7,286047002.8,Y,0.0
1504285815.6,286047002.2,P,1.0
1504285835.4,286047001.5,N,0.8
1504285855.2,286047004.3,P,1.5
1504285875.1,286047001.7,N,1.3
1504285876.0,286047001.7,N,1.2
1504285895.8,286047004.4,Y,0.0
1504285915.6,286047000.6,P,0.7
1504285935.5,286046999.7,N,0.9
1504285955.3,286047002.8,P,1.2
1504285975.2,286047000.0,N,1.2
1504285995.9,286046999.7,N,1.2
1504286015.7,286047002.4,N,1.2
1504286035.6,286047002.7,N,1.3
1504286055.4,286047002.4,N,1.3
1504286075.3,286047002.6,N,1.3
1504286095.1,286047002.5,N,1.2
1504286096.0,286047002.5,N,1.2
1504286115.8,286047002.6,N,1.2
1504286135.7,286047002.1,N,1.1
1504286155.5,286047001.9,N,1.1
1504286175.3,286043187.8,Y,0.0
1504286195.2,286047000.7,P,0.5
1504286215.0,286047000.8,N,0.5
1504286215.9,286047000.8,N,0.4
1504286235.8,286047000.4,N,0.5
1504286255.6,286047000.0,N,0.5
1504286275.4,286046999.7,N,0.6
1504286295.3,286047002.4,Y,0.0
1504286315.1,286047002.7,P,1.1
1504286335.9,286047001.4,N,0.9
1504286355.7,286047002.0,N,0.8
1504286375.5,286047002.1,N,0.7
1504286395.4,286047002.2,Y,0.0
1504286415.2,286047000.9,P,0.4
1504286435.1,286047000.6,N,0.5
1504286436.0,286047000.6,N,0.5
1504286455.8,286046999.9,N,0.6
1504286475.6,286047000.9,N,0.6
1504286495.5,286047001.0,N,0.5
1504286515.3,286047000.9,N,0.5
1504286535.2,286046999.9,N,0.5
1504286555.9,286047000.9,N,0.5
1504286575.7,286047001.1,N,0.5
1504286595.6,286047000.5,N,0.5
1504286615.4,286046998.2,Y,0.0
1504286635.3,286046998.7,P,1.0
1504286655.1,286047000.9,N,1.0
1504286675.8,286047001.2,N,1.0
1504286695.7,286046998.5,N,1.2
1504286715.5,286047001.1,N,1.1
1504286735.4,286047000.1,N,1.1
1504286755.2,286047002.3,N,1.2
1504286775.0,286047001.9,N,1.2
1504286775.9,286047001.9,N,1.2
1504286795.8,286047001.7,N,1.2
1504286815.6,286047001.7,N,1.2
1504286835.5,286047001.4,N,1.1
1504286855.3,286047003.2,N,1.2
1504286875.1,286047004.3,Y,0.0
1504286895.9,286046999.9,P,0.6
1504286915.7,286047000.2,N,0.5
1504286935.5,286047000.2,N,0.4
1504286955.4,286047000.5,N,0.4
1504286975.2,286047008.7,Y,0.0
1504286995.1,286047006.6,P,3.1
1504286996.0,286047006.6,N,2.9
1504287015.8,286047004.9,N,2.5
1504287035.6,286047001.3,N,2.6
1504287055.5,286047003.9,N,2.4
1504287075.3,286047001.9,N,2.3
1504287095.2,286047001.7,N,2.3
1504287115.9,286047001.3,N,2.3
1504287135.7,286047004.4,N,2.2
1504287155.6,286047001.3,N,2.1
1504287175.4,286047001.8,N,2.1
1504287195.2,286047001.7,N,2.0
1504287215.1,286047001.3,N,2.0
1504287216.0,286047001.3,N,2.0
1504287235.8,286047001.7,N,1.9
1504287255.7,286047001.7,N,1.9
1504287275.5,286047004.3,N,1.9
1504287295.3,286047001.8,N,1.8
1504287315.2,286047001.8,N,1.8
1504287335.0,286047002.2,N,1.7
1504287335.9,286047002.2,N,1.7
1504287355.8,286047002.0,N,1.7
1504287375.6,286047002.4,N,1.6
1504287395.4,286047002.7,N,1.6
1504287415.3,286047002.1,N,1.6
1504287435.1,286047001.8,N,1.6
1504287455.9,286047001.5,N,1.5
1504287475.7,286047002.2,N,1.5
1504287495.5,286046999.8,N,1.6
1504287515.4,286047002.3,N,1.5
1504287535.2,286046999.9,N,1.4
1504287555.1,286047002.1,N,1.1
1504287556.0,286047002.1,N,1.0
1504287575.8,286047002.0,N,1.0
1504287595.6,286047001.8,N,0.9
1504287615.5,286047002.7,Y,0.0
1504287635.3,286046998.8,P,1.6
1504287655.1,286046998.3,N,1.6
1504287675.9,286047000.7,N,1.5
1504287695.7,286046998.3,N,1.5
1504287715.6,286047001.2,N,1.5
1504287735.4,286046998.5,N,1.4
1504287755.2,286046999.4,N,1.3
1504287775.1,286046999.3,N,1.3
1504287776.0,286046999.3,N,1.2
1504287795.8,286046998.3,N,1.2
1504287815.7,286047001.0,N,1.2
1504287835.5,286047000.0,N,1.2
1504287855.3,286047002.1,N,1.3
1504287875.2,286047000.9,N,1.3
1504287895.0,286047000.8,N,1.3
1504287895.9,286047000.8,N,1.3
1504287915.8,286046998.3,N,1.3
1504287935.6,286047000.9,N,1.3
1504287955.4,286047001.0,N,1.3
1504287975.3,286047000.9,N,1.2
1504287995.1,286047001.1,N,1.2
1504288015.9,286046998.1,N,1.3
1504288035.7,286047001.0,N,1.3
1504288055.5,286047000.7,N,1.2
1504288075.4,286047001.0,N,1.2
1504288095.2,286047000.6,N,1.2
1504288115.1,286047000.0,N,1.2
1504288116.0,286047000.0,N,1.2
1504288135.8,286047000.5,N,1.2
1504288155.6,286047000.4,N,1.1
1504288175.5,286047000.5,N,1.1
1504288195.3,286047000.8,N,1.0
1504288215.2,286047001.2,N,1.0
1504288235.9,286047001.0,N,1.0
1504288255.7,286047002.4,N,1.0
1504288275.6,286047000.1,N,1.0
1504288295.4,286046999.9,N,1.0
1504288315.2,286046999.9,N,1.0
1504288335.1,286047000.5,N,0.9
1504288336.0,286047000.5,N,0.8
1504288355.8,286047000.4,N,0.8
1504288375.7,286047001.0,N,0.8
1504288395.5,286047002.4,N,0.9
1504288415.3,286047002.7,Y,0.0
1504288435.2,286047002.3,P,0.9
1504288455.0,286047000.1,N,0.9
1504288455.9,286047000.1,N,0.9
1504288475.8,286047002.7,N,1.1
1504288495.6,286047000.9,N,1.0
1504288515.4,286047001.2,N,0.9
1504288535.3,286047001.1,N,0.9
1504288555.1,286046998.5,N,1.2
1504288575.9,286046998.4,N,1.3
1504288595.7,286047001.0,N,1.3
1504288615.5,286046998.1,N,1.4
1504288635.4,286046998.5,N,1.4
1504288655.2,286046998.7,N,1.4
1504288675.1,286046998.3,N,1.5
1504288676.0,286046998.3,N,1.5
1504288695.8,286047001.1,N,1.5
1504288715.6,286047001.0,N,1.4
1504288735.5,286047001.1,N,1.4
1504288755.3,286046998.5,N,1.4
1504288775.1,286046998.5,N,1.4
1504288795.9,286046998.2,N,1.5
